Location: La Pernelle
(49.6188°N, 1.2999°W)
Time: 12:53:55
(UTC+00:00)

Cosmos 1954 Rocket - Visible Passes

Search period start: 23 October 2021 00:00
Search period end: 02 November 2021 00:00
Orbit: 752 x 781 km, 74.0° (Epoch: 22 October)

Date Brightness Start Highest point End Pass type
(mag) Time Alt. Az. Time Alt. Az. Time Alt. Az.
23 Oct 4.9 19:01:47 10° N 19:06:00 31° NE 19:06:00 31° NE visible
23 Oct 5.8 20:43:39 10° NNW 20:46:15 28° NW 20:46:15 28° NW visible
24 Oct 5.3 18:24:37 10° N 18:28:37 22° NE 18:29:26 21° ENE visible
24 Oct 4.9 20:06:01 10° NNW 20:09:41 46° NW 20:09:41 46° NW visible
25 Oct 5.7 17:47:39 10° N 17:50:42 15° NE 17:52:56 12° ENE visible
25 Oct 4.1 19:28:30 10° NNW 19:33:11 63° NNE 19:33:11 63° NNE visible
25 Oct 6.5 21:11:33 10° NW 21:13:26 17° WNW 21:13:26 17° WNW visible
26 Oct 4.3 18:51:07 10° NNW 18:56:08 44° ENE 18:56:45 43° ENE visible
26 Oct 5.7 20:33:26 10° NW 20:37:01 29° W 20:37:01 29° W visible
27 Oct 4.9 18:13:49 10° N 18:18:26 30° NE 18:20:26 23° E visible
27 Oct 4.7 19:55:38 10° NNW 20:00:43 50° WSW 20:00:43 50° WSW visible
28 Oct 5.3 17:36:40 10° N 17:40:36 21° NE 17:44:15 11° E visible
28 Oct 4.0 19:18:00 10° NNW 19:23:17 80° WSW 19:24:31 53° S visible
28 Oct 6.7 21:02:17 10° WNW 21:04:25 12° W 21:04:48 12° W visible
29 Oct 3.9 18:40:31 10° NNW 18:45:46 66° ENE 18:48:32 28° SE visible
29 Oct 6.2 20:23:28 10° NW 20:27:18 21° W 20:28:49 18° WSW visible
30 Oct 4.4 18:03:07 10° NNW 18:08:09 42° ENE 18:12:47 12° SE visible
30 Oct 5.6 19:45:24 10° NW 19:50:04 33° WSW 19:53:06 19° SSW visible
31 Oct 4.9 17:25:51 10° N 17:30:25 29° NE 17:34:58 10° ESE visible
31 Oct 4.7 19:07:37 10° NNW 19:12:44 53° WSW 19:17:50 10° S visible
01 Nov 4.0 18:30:01 10° NNW 18:35:18 85° WSW 18:40:36 10° SSE visible
01 Nov 6.9 20:14:02 10° WNW 20:16:29 13° W 20:18:57 10° WSW visible
